Duncan, OK

7:32 AM CDT on September 22, 2017 (GMT -0500)
Halliburton

Weather History for KDUC - September, 2012

Change the Weather History Date:

Wednesday, September 5, 2012

  Actual Average (KLAW) Record (KLAW)
Temperature  
Mean Temperature 90 °F -  
Max Temperature 102 °F 90 °F 109 °F (1998)
Min Temperature 77 °F 66 °F 49 °F (1974)
Cooling Degree Days 24    
Growing Degree Days 40 (Base 50)    
Moisture  
Dew Point 64 °F    
Average Humidity 46    
Maximum Humidity 69    
Minimum Humidity 26    
Precipitation  
Precipitation 0.00 in - - ()
Sea Level Pressure  
Sea Level Pressure 29.85 in    
Wind  
Wind Speed 5 mph (SE)    
Max Wind Speed 18 mph    
Max Gust Speed 26 mph    
Visibility 10 miles    
Events      
Averages and records for this station are not official NWS values.
T = Trace of Precipitation, MM = Missing Value Source: NWS Daily Summary

Daily Weather History Graph

Daily Weather History Graph

Search for Another Location

Airport or City:

Trip Planner

Search our weather history database for the weather conditions in past years. The results will help you decide how hot, cold, wet, or windy it might be!

Date:

Astronomy

Sep. 05, 2012 Rise Set
Actual Time 7:08 AM CDT 7:51 PM CDT
Civil Twilight 6:42 AM CDT 8:17 PM CDT
Nautical Twilight 6:12 AM CDT 8:47 PM CDT
Astronomical Twilight 5:41 AM CDT 9:18 PM CDT
Moon 10:39 PM CDT (9/5) 11:57 AM CDT (9/5)
Length of Visible Light 13h 34m
Length of Day
12h 43m
Waning Gibbous, 76% of the Moon is Illuminated
Sep 5
Waning Gibbous
Sep 8
Last Quarter
Sep 15
New
Sep 22
First Quarter
Sep 29
Full

Hourly Weather History & Observations

Time (CDT) Temp. Heat Index Dew Point Humidity Pressure Visibility Wind Dir Wind Speed Gust Speed Precip Events Conditions
12:15 AM 82.4 °F 83.4 °F 62.6 °F 51% 29.85 in 10.0 mi South 4.6 mph - N/A   Clear
12:35 AM 82.4 °F 83.4 °F 62.6 °F 51% 29.86 in 10.0 mi South 3.5 mph - N/A   Clear
12:55 AM 82.4 °F 83.4 °F 62.6 °F 51% 29.86 in 10.0 mi South 4.6 mph - N/A   Clear
1:15 AM 82.4 °F 83.4 °F 62.6 °F 51% 29.86 in 10.0 mi South 4.6 mph - N/A   Clear
1:35 AM 80.6 °F 81.8 °F 62.6 °F 54% 29.85 in 10.0 mi South 6.9 mph - N/A   Clear
1:55 AM 82.4 °F 83.4 °F 62.6 °F 51% 29.86 in 10.0 mi Calm Calm - N/A   Clear
2:15 AM 82.4 °F 83.4 °F 62.6 °F 51% 29.87 in 10.0 mi Calm Calm - N/A   Mostly Cloudy
2:35 AM 82.4 °F 83.4 °F 62.6 °F 51% 29.86 in 10.0 mi Calm Calm - N/A   Scattered Clouds
2:55 AM 82.4 °F 83.4 °F 62.6 °F 51% 29.87 in 10.0 mi Calm Calm - N/A   Mostly Cloudy
3:15 AM 82.4 °F 83.4 °F 62.6 °F 51% 29.87 in 10.0 mi NNW 4.6 mph - N/A   Scattered Clouds
3:35 AM 82.4 °F 83.4 °F 62.6 °F 51% 29.87 in 10.0 mi NW 8.1 mph - N/A   Scattered Clouds
3:55 AM 82.4 °F 83.4 °F 62.6 °F 51% 29.88 in 10.0 mi WNW 4.6 mph - N/A   Scattered Clouds
4:15 AM 80.6 °F 82.3 °F 64.4 °F 58% 29.88 in 10.0 mi NNW 8.1 mph - N/A   Scattered Clouds
4:55 AM 80.6 °F 82.7 °F 66.2 °F 61% 29.87 in 10.0 mi NNE 6.9 mph - N/A   Clear
5:15 AM 78.8 °F - 66.2 °F 65% 29.88 in 10.0 mi NNE 5.8 mph - N/A   Clear
5:35 AM 78.8 °F - 66.2 °F 65% 29.87 in 10.0 mi ENE 4.6 mph - N/A   Clear
5:55 AM 77.0 °F - 66.2 °F 69% 29.87 in 10.0 mi East 6.9 mph - N/A   Clear
6:15 AM 77.0 °F - 66.2 °F 69% 29.87 in 10.0 mi East 5.8 mph - N/A   Clear
6:35 AM 77.0 °F - 66.2 °F 69% 29.87 in 10.0 mi East 3.5 mph - N/A   Clear
6:55 AM 77.0 °F - 66.2 °F 69% 29.87 in 10.0 mi ESE 4.6 mph - N/A   Clear
7:15 AM 77.0 °F - 66.2 °F 69% 29.87 in 10.0 mi ESE 4.6 mph - N/A   Clear
7:35 AM 77.0 °F - 66.2 °F 69% 29.87 in 10.0 mi Calm Calm - N/A   Clear
7:55 AM 77.0 °F - 66.2 °F 69% 29.87 in 10.0 mi SE 4.6 mph - N/A   Clear
8:15 AM 78.8 °F - 66.2 °F 65% 29.87 in 10.0 mi ESE 4.6 mph - N/A   Clear
8:35 AM 80.6 °F 82.7 °F 66.2 °F 61% 29.87 in 10.0 mi SE 5.8 mph - N/A   Clear
8:55 AM 82.4 °F 83.9 °F 64.4 °F 54% 29.87 in 10.0 mi SSE 6.9 mph - N/A   Clear
9:15 AM 86.0 °F 87.3 °F 64.4 °F 48% 29.87 in 10.0 mi South 9.2 mph - N/A   Clear
9:35 AM 87.8 °F 88.5 °F 62.6 °F 43% 29.87 in 10.0 mi South 8.1 mph - N/A   Clear
9:55 AM 89.6 °F 90.1 °F 62.6 °F 40% 29.87 in 10.0 mi South 9.2 mph - N/A   Clear
10:15 AM 91.4 °F 92.1 °F 62.6 °F 38% 29.86 in 10.0 mi South 13.8 mph - N/A   Clear
10:35 AM 91.4 °F 92.1 °F 62.6 °F 38% 29.86 in 10.0 mi SSW 8.1 mph - N/A   Clear
10:55 AM 93.2 °F 94.1 °F 62.6 °F 36% 29.87 in 10.0 mi SW 5.8 mph - N/A   Clear
11:15 AM 95.0 °F 96.0 °F 62.6 °F 34% 29.86 in 10.0 mi South 8.1 mph - N/A   Clear
11:35 AM 95.0 °F 96.0 °F 62.6 °F 34% 29.87 in 10.0 mi Calm Calm - N/A   Clear
11:55 AM 96.8 °F 98.0 °F 62.6 °F 32% 29.86 in 10.0 mi WSW 3.5 mph - N/A   Clear
12:15 PM 96.8 °F 98.0 °F 62.6 °F 32% 29.86 in 10.0 mi Calm Calm - N/A   Clear
12:35 PM 98.6 °F 99.4 °F 60.8 °F 29% 29.86 in 10.0 mi SSW 4.6 mph - N/A   Clear
12:55 PM 98.6 °F 100.0 °F 62.6 °F 30% 29.85 in 10.0 mi SW 6.9 mph - N/A   Clear
1:15 PM 98.6 °F 99.4 °F 60.8 °F 29% 29.84 in 10.0 mi WSW 4.6 mph - N/A   Clear
1:35 PM 98.6 °F 101.0 °F 64.4 °F 32% 29.84 in 10.0 mi NNW 10.4 mph - N/A   Clear
1:55 PM 96.8 °F 99.0 °F 64.4 °F 34% 29.84 in 10.0 mi North 8.1 mph - N/A   Clear
2:15 PM 96.8 °F 99.0 °F 64.4 °F 34% 29.84 in 10.0 mi North 9.2 mph - N/A   Clear
2:35 PM 96.8 °F 98.0 °F 62.6 °F 32% 29.84 in 10.0 mi North 9.2 mph - N/A   Clear
2:55 PM 96.8 °F 98.0 °F 62.6 °F 32% 29.84 in 10.0 mi NNW 6.9 mph - N/A   Clear
3:15 PM 98.6 °F 100.0 °F 62.6 °F 30% 29.83 in 10.0 mi NNW 4.6 mph - N/A   Clear
3:35 PM 98.6 °F 100.0 °F 62.6 °F 30% 29.82 in 10.0 mi NNW 6.9 mph - N/A   Clear
3:55 PM 98.6 °F 100.0 °F 62.6 °F 30% 29.82 in 10.0 mi NNW 6.9 mph - N/A   Clear
4:15 PM 98.6 °F 100.0 °F 62.6 °F 30% 29.81 in 10.0 mi NNW 3.5 mph - N/A   Clear
4:35 PM 100.4 °F 101.3 °F 60.8 °F 27% 29.80 in 10.0 mi North 5.8 mph - N/A   Clear
4:55 PM 100.4 °F 101.3 °F 60.8 °F 27% 29.80 in 10.0 mi Calm Calm - N/A   Clear
5:15 PM 100.4 °F 101.3 °F 60.8 °F 27% 29.79 in 10.0 mi ENE 4.6 mph - N/A   Clear
5:35 PM 102.2 °F 103.6 °F 60.8 °F 26% 29.79 in 10.0 mi ENE 4.6 mph - N/A   Clear
5:55 PM 100.4 °F 102.4 °F 62.6 °F 29% 29.78 in 10.0 mi NNE 3.5 mph - N/A   Clear
6:15 PM 100.4 °F 102.4 °F 62.6 °F 29% 29.79 in 10.0 mi SE 5.8 mph - N/A   Clear
6:35 PM 100.4 °F 102.4 °F 62.6 °F 29% 29.80 in 10.0 mi East 5.8 mph - N/A   Clear
6:55 PM 93.2 °F 94.1 °F 62.6 °F 36% 29.82 in 10.0 mi SSE 16.1 mph 21.9 mph N/A   Clear
7:15 PM 89.6 °F 90.1 °F 62.6 °F 40% 29.83 in 10.0 mi South 15.0 mph 26.5 mph N/A   Clear
7:35 PM 89.6 °F 90.1 °F 62.6 °F 40% 29.82 in 10.0 mi SSE 11.5 mph - N/A   Clear
7:55 PM 87.8 °F 88.5 °F 62.6 °F 43% 29.82 in 10.0 mi SSE 12.7 mph 19.6 mph N/A   Clear
8:15 PM 87.8 °F 88.5 °F 62.6 °F 43% 29.81 in 10.0 mi SSE 13.8 mph - N/A   Clear
8:55 PM 84.2 °F 85.6 °F 64.4 °F 51% 29.82 in 10.0 mi South 6.9 mph - N/A   Clear
9:15 PM 82.4 °F 83.9 °F 64.4 °F 54% 29.84 in 10.0 mi Calm Calm - N/A   Clear
9:35 PM 82.4 °F 83.9 °F 64.4 °F 54% 29.85 in 10.0 mi Calm Calm - N/A   Clear
9:55 PM 82.4 °F 83.9 °F 64.4 °F 54% 29.86 in 10.0 mi Calm Calm - N/A   Clear
10:15 PM 82.4 °F 83.9 °F 64.4 °F 54% 29.86 in 10.0 mi East 3.5 mph - N/A   Clear
10:35 PM 82.4 °F 83.9 °F 64.4 °F 54% 29.86 in 10.0 mi Calm Calm - N/A   Clear
10:55 PM 82.4 °F 83.9 °F 64.4 °F 54% 29.86 in 10.0 mi ENE 3.5 mph - N/A   Clear
11:15 PM 82.4 °F 83.9 °F 64.4 °F 54% 29.87 in 10.0 mi Calm Calm - N/A   Clear
11:35 PM 82.4 °F 83.9 °F 64.4 °F 54% 29.91 in 10.0 mi NNW 18.4 mph 24.2 mph N/A   Clear
11:55 PM 84.2 °F 86.6 °F 66.2 °F 55% 29.92 in 7.0 mi NNW 12.7 mph 25.3 mph N/A   Mostly Cloudy